Find Starlink 36905

NORAD ID: 68176 Int'l Des: 2026-050 Owner: SPXS Country: US Constellation: starlink operational
LEOCIRCULAR

Current View

Loading 3D Globe...

About Starlink 36905

Starlink 36905 (NORAD 68176) is a starlink constellation satellite (v2 mini) launched Mar 14, 2026 by SPXS of US. It operates in LEO, CIRCULAR orbit with a mass of 575.00 kg.

About Starlink 36905

Description loading...

Upcoming Passes

Passes for default location (London). Set your location on the main map for personalized predictions.

Altitude History

Loading altitude history...

Two-Line Element Set

1 68176U 26050K 26166.30542011 .00020754 00000-0 62382-3 0 9990
2 68176 53.1565 172.2589 0001106 71.0429 289.0694 15.34392507 15643
Epoch: Jun 15, 2026 • Age: 9 hours

Current Status

Altitude 481.9 km
Velocity 7.62 km/s
Sub-Earth Point -53.14°S, 74.31°W
Launch Date Mar 14, 2026
Age 0.2 years
Type internet

Technical Details

Classification Payload
Mass 575.00 kg
Dry Mass 530.00 kg
Total Mass 575.00 kg
Length 0.30 m
Diameter 4.10 m
Span 29.00 m
Shape Box + pan
Manufacturer SPXS
Bus Type Starlink V2MO
Phase Status In Orbit
Owner/State SPXS/US

Most Searched